AirNav   Pilot Hours Calculator
 
 1246 users online  

E30 Bruce Field Airport
Ballinger, Texas, USA

GOING TO BALLINGER?


FAA INFORMATION EFFECTIVE 22 APRIL 2021

Location

FAA Identifier: E30
Lat/Long: 31-40-28.1000N 099-58-37.2000W
31-40.468333N 099-58.620000W
31.6744722,-99.9770000
(estimated)
Elevation: 1738.5 ft. / 529.9 m (surveyed)
Variation: 08E (1995)
From city: 5 miles SW of BALLINGER, TX
Time zone: UTC -5 (UTC -6 during Standard Time)
Zip code: 76821

Airport Operations

Airport use: Open to the public
Activation date: 03/1945
Control tower: no
ARTCC: FORT WORTH CENTER
FSS: SAN ANGELO FLIGHT SERVICE STATION
NOTAMs facility: SJT (NOTAM-D service available)
Attendance: UNATNDD
Wind indicator: lighted
Segmented circle: yes
Lights: DUSK-DAWN. ACTVT PAPI RY 17 - CTAF.
Beacon: white-green (lighted land airport)
Operates sunset to sunrise.

Airport Communications

CTAF: 122.9
SAN ANGELO APPROACH: 125.35
SAN ANGELO DEPARTURE: 125.35
  • APCH/DEP CTL SVC PRVDD BY FORT WORTH ARTCC (ZFW) ON FREQS 126.15/322.55 (SAN ANGELO RCAG) WHEN MIDLAND APCH CTL CLSD.

Nearby radio navigation aids

VOR radial/distance  VOR name  Freq  Var
SJTr044/30.3SAN ANGELO VORTAC115.1010E
TQAr184/34.6TUSCOLA VOR/DME111.6010E

Airport Services

Fuel available: 100LL
FOR FUEL CALL 325-365-3511. CASH OR CHECK ONLY.
Parking: tiedowns

Runway Information

Runway 17/35

Dimensions: 3909 x 60 ft. / 1191 x 18 m
Surface: asphalt, in good condition
Weight bearing capacity: 
Single wheel: 20.0
Runway edge lights: medium intensity
RUNWAY 17  RUNWAY 35
Latitude: 31-40.791357N31-40.146715N
Longitude: 099-58.617497W099-58.620858W
Elevation: 1735.2 ft.1738.4 ft.
Traffic pattern: leftleft
Runway heading: 172 magnetic, 180 true352 magnetic, 000 true
Markings: nonprecision, in good conditionnonprecision, in good condition
Visual slope indicator: 2-light PAPI on left (3.00 degrees glide path)
Touchdown point: yes, no lightsyes, no lights
Obstructions: 15 ft. road, 520 ft. from runway, 21:1 slope to clearnone

Airport Ownership and Management from official FAA records

Ownership: Publicly-owned
Owner: CITY OF BALLINGER
PO BOX 497
BALLINGER, TX 76821
Phone (325) 365-3511
Manager: BRENT ALLEN
P.O. BOX 497
BALLINGER, TX 76821
Phone (325) 365-3591

Airport Operational Statistics

Aircraft based on the field: 17
Single engine airplanes: 16
Multi engine airplanes: 1
    
Aircraft operations: avg 92/week *
67% local general aviation
33% transient general aviation
* for 12-month period ending 08 November 2017

Additional Remarks

DEER ON & INVOF ARPT.
FOR CD CTC SAN ANGELO APCH AT 432-563-2123. WHEN APCH CLSD CTC FORT WORTH ARTCC AT 817-858-7584.

Instrument Procedures

NOTE: All procedures below are presented as PDF files. If you need a reader for these files, you should download the free Adobe Reader.

NOT FOR NAVIGATION. Please procure official charts for flight.
FAA instrument procedures published for use from 22 April 2021 at 0901Z to 20 May 2021 at 0900z.

 
IAPs - Instrument Approach Procedures
RNAV (GPS) RWY 17   download (200KB)
RNAV (GPS) RWY 35 **CHANGED**   download (213KB)
NOTE: Special Take-Off Minimums/Departure Procedures apply   download (105KB)

Other nearby airports with instrument procedures:

77F - Winters Municipal Airport (16 nm N)
KCOM - Coleman Municipal Airport (31 nm E)
KSJT - San Angelo Regional Airport/Mathis Field (33 nm SW)
KBBD - Curtis Field Airport (45 nm SE)
KDYS - Dyess Air Force Base (45 nm N)
 
Loc | Ops | Rwys | IFR | FBO | Links
Com | Nav | Svcs | Stats | Notes
Area around E30 (Bruce Field Airport)
 
Road maps at: MapQuest Bing Google
 
Aerial photo
WARNING: Photo may not be current or correct
Aerial photo of E30 (Bruce Field Airport)
Do you have a better or more recent aerial photo of Bruce Field Airport that you would like to share? If so, please send us your photo.

 
Sectional chart

 
Airport distance calculator
Flying to Bruce Field Airport? Find the distance to fly.

From to E30

Sunrise and sunset
Times for 11-May-2021
 Local
(UTC-5)
 Zulu
(UTC)
Morning civil twilight06:2011:20
Sunrise06:4711:47
Sunset20:2601:26
Evening civil twilight20:5201:52

Current date and time
Zulu (UTC)  11-May-2021 23:20:32
Local (UTC-5)  11-May-2021 18:20:32
 
METAR
KCOM 
31nm E 
112255Z AUTO 01014G18KT 10SM OVC015 17/14 A3003 RMK AO2 T01650135
KSJT 
33nm SW 
112251Z 06009KT 10SM OVC033 20/14 A2998 RMK AO2 SLP142 T02000144
KBBD 
45nm SE 
112255Z AUTO 10006KT 10SM BKN010 OVC035 17/15 A2999 RMK AO2
KDYS 
45nm N 
112256Z AUTO 02014KT 10SM OVC008 14/10 A3004 RMK AO2 SLP158 T01420100
KABI 
47nm N 
112252Z 01012G22KT 9SM BKN007 BKN010 OVC016 14/12 A3005 RMK AO2 SLP165 T01390117
TAF
KSJT 
33nm SW 
111735Z 1118/1218 04011KT P6SM BKN006 FM120800 01009KT 2SM BR OVC003 FM121500 02011KT 4SM BR OVC007
NOTAMs
Click for the latest NOTAMs
NOTAMs are issued by the DoD/FAA and will open in a separate window not controlled by AirNav.

 

 
 

FBO, Fuel Providers, and Aircraft Ground Support

  
 Business Name 
 
 Contact 
 
 Services / Description 
 
Fuel Prices
 
Comments
  
Bruce Field Airport 325-365-3511
no information available

If you are affiliated with Bruce Field Airport and would like to show here your services, contact info, web link, logo, and more, click here
100LL
PS $4.00 
 Updated 30-Apr-2021
 
   write
PS=Pump service
Update Fuel Prices
 

Would you like to see your business listed on this page?

 If your business provides an interesting product or service to pilots, flight crews, aircraft, or users of the Bruce Field Airport, you should consider listing it here.  To start the listing process, click on the button below
 
Add a business
 

Other Pages about Bruce Field Airport

ballinger-tx.com/bruce-field
 
Update a link
 
Copyright © AirNav, LLC. All rights reserved. Privacy Policy  Contact